Date String (YYYY-MM-DD hh:mm:ss) UTC,Instrument flags,Ambient pressure (hPa),Sample flow (lpm),Bypass flow (lpm),Sample temperature (°C),Ambient temperature (°C),ASC tube jacket temperature (°C),LED temperature (°C),Box temperature (°C),Sample RH (%),Span deviation,Mass concentration (μg/m³),Mass concentration (μg/m³),Mass concentration (μg/m³)
DateTimeUTC,F1_M11,P_M11,Q1_M11,Q2_M11,T1_M11,T2_M11,T3_M11,T4_M11,T5_M11,U1_M11,ZSPAN_M11,X0_M11,X2_M11,X1_M11
2023-05-25 11:00:00,,0829.7,5.00,0.00,28.8,26.9,00.0,37.2,30.3,22.3,0002.7,0009.39,0005.24,0004.79
2023-05-25 11:01:00,,0829.8,5.00,0.00,28.8,26.9,00.0,37.2,30.3,22.3,0002.8,0009.27,0005.22,0004.79
2023-05-25 11:02:00,,0829.7,5.01,0.00,28.8,26.9,00.0,37.2,30.3,22.5,0002.7,0009.17,0005.24,0004.81
2023-05-25 11:03:00,,0829.7,5.01,0.00,28.8,26.9,00.0,37.2,30.3,22.5,0002.6,0009.25,0005.28,0004.83
2023-05-25 11:04:00,,0829.7,5.00,0.00,28.8,26.9,00.0,37.2,30.3,22.2,0002.6,0009.12,0005.24,0004.80
2023-05-25 11:05:00,,0829.7,5.00,0.00,28.7,26.9,00.0,37.2,30.3,22.1,0003.1,0009.13,0005.22,0004.77
2023-05-25 11:06:00,,0829.7,5.00,0.00,28.7,26.9,00.0,37.2,30.3,22.2,0003.2,0009.06,0005.21,0004.73
2023-05-25 11:07:00,,0829.7,5.00,0.00,28.7,26.9,00.0,37.2,30.3,22.3,0003.3,0008.80,0005.20,0004.72
2023-05-25 11:08:00,,0829.7,5.00,0.00,28.7,26.9,00.0,37.1,30.3,22.4,0003.5,0008.61,0005.16,0004.72
2023-05-25 11:09:00,,0829.7,5.00,0.00,28.7,26.9,00.0,37.1,30.3,22.4,0003.6,0008.63,0005.13,0004.69
2023-05-25 11:10:00,,0829.8,5.00,0.00,28.7,26.9,00.0,37.1,30.3,22.5,0003.6,0009.40,0005.11,0004.69
2023-05-25 11:11:00,,0829.8,5.00,0.00,28.7,26.8,00.0,37.1,30.2,22.4,0004.0,0009.28,0005.10,0004.68
2023-05-25 11:12:00,,0829.8,4.99,0.00,28.7,26.8,00.0,37.1,30.2,22.4,0003.9,0009.26,0005.10,0004.67
2023-05-25 11:13:00,,0829.8,5.00,0.00,28.7,26.8,00.0,37.1,30.2,22.4,0003.9,0009.24,0005.07,0004.66
2023-05-25 11:14:00,,0829.8,5.00,0.00,28.7,26.8,00.0,37.1,30.2,22.4,0004.0,0009.25,0005.07,0004.65
2023-05-25 11:15:00,,0829.8,5.00,0.00,28.7,26.8,00.0,37.1,30.2,22.4,0003.9,0009.28,0005.08,0004.66
2023-05-25 11:16:00,,0829.7,5.00,0.00,28.7,26.8,00.0,37.1,30.2,22.4,0003.9,0009.21,0005.08,0004.70
2023-05-25 11:17:00,,0829.7,5.00,0.00,28.6,26.8,00.0,37.1,30.2,22.5,0003.9,0009.30,0005.11,0004.74
2023-05-25 11:18:00,,0829.7,5.00,0.00,28.6,26.8,00.0,37.0,30.2,22.4,0003.7,0009.29,0005.10,0004.73
2023-05-25 11:19:00,,0829.7,5.00,0.00,28.6,26.8,00.0,37.0,30.2,22.3,0003.8,0009.39,0005.13,0004.74
2023-05-25 11:20:00,,0829.7,5.00,0.00,28.6,26.7,00.0,37.0,30.2,22.4,0003.6,0009.44,0005.17,0004.77
2023-05-25 11:21:00,,0829.7,5.00,0.00,28.6,26.8,00.0,37.0,30.2,22.3,0003.7,0008.62,0005.18,0004.79
2023-05-25 11:22:00,,0829.7,5.00,0.00,28.6,26.7,00.0,37.0,30.1,22.3,0003.3,0008.59,0005.20,0004.81
2023-05-25 11:23:00,,0829.7,5.00,0.00,28.6,26.7,00.0,37.0,30.2,22.4,0003.3,0008.60,0005.21,0004.83
2023-05-25 11:24:00,,0829.7,5.00,0.00,28.6,26.7,00.0,37.0,30.1,22.3,0003.5,0008.60,0005.21,0004.84
2023-05-25 11:25:00,,0829.7,4.99,0.00,28.6,26.7,00.0,37.0,30.1,22.2,0003.3,0008.43,0005.15,0004.83
2023-05-25 11:26:00,,0829.7,4.99,0.00,28.6,26.7,00.0,37.0,30.1,22.2,0003.1,0008.37,0005.13,0004.82
2023-05-25 11:27:00,,0829.7,5.00,0.00,28.5,26.7,00.0,37.0,30.1,22.3,0003.1,0008.89,0005.12,0004.80
2023-05-25 11:28:00,,0829.7,5.00,0.00,28.5,26.7,00.0,37.0,30.1,22.2,0003.1,0009.32,0005.09,0004.77
2023-05-25 11:29:00,,0829.7,5.01,0.00,28.5,26.6,00.0,36.9,30.1,22.1,0003.4,0009.19,0005.04,0004.74
2023-05-25 11:30:00,,0829.7,5.00,0.00,28.5,26.6,00.0,36.9,30.1,22.2,0003.6,0009.14,0005.02,0004.71
2023-05-25 11:31:00,,0829.7,5.00,0.00,28.5,26.6,00.0,36.9,30.1,22.2,0003.6,0009.05,0004.98,0004.68
2023-05-25 11:32:00,,0829.8,5.01,0.00,28.5,26.6,00.0,36.9,30.1,22.2,0003.6,0009.05,0004.99,0004.68
2023-05-25 11:33:00,,0829.7,4.99,0.00,28.5,26.6,00.0,36.9,30.1,22.2,0003.6,0009.10,0005.02,0004.67
2023-05-25 11:34:00,,0829.8,5.00,0.00,28.5,26.6,00.0,36.9,30.1,22.2,0003.7,0009.05,0004.98,0004.63
2023-05-25 11:35:00,,0829.8,5.00,0.00,28.5,26.6,00.0,36.9,30.0,22.2,0003.7,0009.03,0004.96,0004.60
2023-05-25 11:36:00,,0829.9,5.00,0.00,28.5,26.6,00.0,36.9,30.0,22.2,0003.7,0009.07,0004.97,0004.60
2023-05-25 11:37:00,,0829.8,5.00,0.00,28.5,26.6,00.0,36.9,30.0,22.2,0003.7,0009.31,0004.99,0004.61
2023-05-25 11:38:00,,0829.8,4.99,0.00,28.4,26.6,00.0,36.9,30.0,22.3,0003.5,0008.74,0004.96,0004.60
2023-05-25 11:39:00,,0829.8,5.01,0.00,28.4,26.6,00.0,36.9,30.0,22.3,0003.2,0008.25,0004.95,0004.60
2023-05-25 11:40:00,,0829.8,5.01,0.00,28.4,26.6,00.0,36.8,30.0,22.3,0003.0,0008.30,0004.97,0004.61
2023-05-25 11:41:00,,0829.8,5.01,0.00,28.4,26.5,00.0,36.8,30.0,22.3,0002.5,0008.27,0004.97,0004.63
2023-05-25 11:42:00,,0829.8,5.00,0.00,28.4,26.5,00.0,36.8,30.0,22.3,0002.6,0008.30,0004.98,0004.64
2023-05-25 11:43:00,,0829.8,4.99,0.00,28.4,26.5,00.0,36.8,30.0,22.2,0002.9,0008.40,0004.99,0004.65
2023-05-25 11:44:00,,0829.8,4.99,0.00,28.4,26.5,00.0,36.8,30.0,22.2,0002.8,0008.32,0004.95,0004.66
2023-05-25 11:45:00,,0829.8,5.01,0.00,28.4,26.5,00.0,36.8,30.0,22.1,0003.0,0008.37,0004.99,0004.69
2023-05-25 11:46:00,,0829.8,5.00,0.00,28.4,26.5,00.0,36.8,30.0,22.1,0002.8,0008.36,0005.00,0004.72
2023-05-25 11:47:00,,0829.8,5.00,0.00,28.4,26.5,00.0,36.8,30.0,22.1,0002.7,0008.31,0005.01,0004.74
2023-05-25 11:48:00,,0829.8,4.99,0.00,28.4,26.5,00.0,36.8,29.9,22.2,0002.5,0008.34,0005.02,0004.76
2023-05-25 11:49:00,,0829.8,5.00,0.00,28.4,26.5,00.0,36.8,29.9,22.2,0003.0,0008.64,0005.07,0004.76
2023-05-25 11:50:00,,0829.8,5.00,0.00,28.4,26.5,00.0,36.8,29.9,22.1,0003.4,0009.02,0005.08,0004.77
2023-05-25 11:51:00,,0829.8,5.00,0.00,28.3,26.4,00.0,36.8,29.9,22.1,0003.3,0009.04,0005.09,0004.77
2023-05-25 11:52:00,,0829.8,5.00,0.00,28.3,26.4,00.0,36.8,29.9,22.1,0003.4,0009.18,0005.13,0004.80
2023-05-25 11:53:00,,0829.8,5.00,0.00,28.3,26.4,00.0,36.7,29.9,22.1,0003.1,0009.31,0005.18,0004.83
2023-05-25 11:54:00,,0829.8,5.01,0.00,28.3,26.4,00.0,36.7,29.9,22.2,0003.1,0009.28,0005.21,0004.84
2023-05-25 11:55:00,,0829.7,5.01,0.00,28.3,26.4,00.0,36.7,29.9,22.2,0003.3,0009.48,0005.30,0004.87
2023-05-25 11:56:00,,0829.7,5.02,0.00,28.3,26.4,00.0,36.7,29.9,22.1,0003.4,0009.54,0005.33,0004.88
2023-05-25 11:57:00,,0829.8,5.00,0.00,28.3,26.4,00.0,36.7,29.9,22.1,0003.3,0009.59,0005.35,0004.88
2023-05-25 11:58:00,,0829.8,5.00,0.00,28.3,26.4,00.0,36.7,29.8,22.1,0003.4,0009.64,0005.35,0004.88
2023-05-25 11:59:00,,0829.7,5.00,0.00,28.3,26.4,00.0,36.7,29.9,22.0,0003.8,0009.67,0005.34,0004.87
